Wind_Speed
49 47 41 40 39 37 47 44 40 42 47 42 44 42 40 43 54 49 44 44 36 35 41 32 32 38 38 34 32 30 36 41 43 44 48 49 50 51 48 46 46 43 42
44 39 38 41 45 46 45 49 50 50 50 46 44 43 46 52 57 52 41 42 43 43 40 41 36 39 38 39 42 41 41 40 46 47 50 50 49 50 52 50 46 43 43
25 25 43 39 44 55 44 50 43 43 40 41 45 47 57 64 58 50 44 42 47 46 44 46 44 40 47 50 48 49 49 51 49 50 53 51 52 53 52 50 48 48 50
34 31 35 56 55 52 47 46 41 41 40 45 56 64 57 55 51 46 46 50 45 46 46 47 44 45 42 45 46 48 56 51 49 51 53 53 53 53 53 53 55 55 55
39 48 51 51 54 50 51 57 53 55 53 63 57 59 55 58 54 53 47 44 45 46 47 47 45 44 43 45 44 48 45 51 58 55 52 53 55 55 56 55 54 52 51
55 57 58 51 50 55 51 49 57 57 59 68 60 58 54 62 62 59 53 54 45 53 48 44 50 50 51 50 49 50 50 46 45 54 57 55 55 56 56 56 56 56 56
51 57 62 57 58 56 62 60 55 59 63 62 65 61 61 65 70 67 63 61 56 52 54 58 57 51 49 49 50 48 48 48 49 49 52 55 57 56 55 55 56 56 57
44 53 65 70 67 67 66 67 67 68 67 63 65 66 70 74 70 70 71 66 63 66 61 65 60 55 52 48 51 53 51 52 53 52 51 56 52 53 54 55 55 58 58
58 58 57 63 69 73 74 71 72 75 82 73 74 67 65 64 65 62 58 61 67 63 70 67 71 63 54 57 54 56 58 57 53 57 56 59 58 59 58 60 58 56 56
71 64 68 72 66 69 72 73 74 79 84 82 79 77 73 72 66 69 62 62 66 69 66 72 71 70 59 64 61 62 61 57 62 62 61 62 65 64 61 61 65 64 61
53 56 69 78 77 81 79 80 84 82 80 85 84 88 86 79 76 74 77 77 76 74 69 69 71 73 70 68 70 68 64 70 70 66 67 67 67 72 72 68 68 68 69
67 67 67 69 71 71 72 76 85 92 95 93 96 98 96 91 87 90 89 92 90 86 88 84 81 76 73 71 75 76 80 75 74 73 70 73 72 75 76 76 73 72 71
77 76 74 76 78 80 81 81 81 82 85 93 97 98 99 100 105 101 101 101 99 97 98 94 92 89 90 86 84 86 85 86 83 78 79 78 80 81 81 80 82 83 79
85 85 84 81 81 84 86 89 90 91 91 91 92 96 100 101 103 106 107 105 102 97 93 92 97 97 93 88 89 90 90 89 89 87 84 86 84 85 85 86 86 86 86
93 95 95 96 96 94 90 88 91 95 96 96 97 99 100 101 101 104 103 103 102 101 101 102 97 96 91 95 98 92 93 94 95 93 91 90 90 91 91 94 94 92 95
100 98 99 100 100 98 95 94 96 98 97 98 100 101 102 103 104 105 106 107 107 107 106 101 99 100 101 101 99 96 94 99 99 97 97 96 94 93 93 95 95 97 96
101 101 99 100 103 102 102 97 93 91 94 96 102 104 104 105 104 104 106 106 108 107 107 104 99 96 100 101 97 93 95 99 100 101 101 102 104 103 103 101 101 101 100
101 99 99 102 103 101 99 95 93 87 86 88 93 97 100 102 103 105 106 108 107 107 105 102 98 96 99 101 100 97 98 97 96 101 104 107 107 108 107 105 105 107 109
102 94 95 98 98 97 89 84 84 84 82 82 83 86 89 92 95 97 100 100 99 98 97 94 92 91 95 96 97 99 105 104 102 102 100 102 104 106 101 102 103 107 111
98 94 92 92 91 87 79 79 75 77 77 75 76 78 79 83 86 87 90 91 92 91 91 92 89 91 93 92 95 98 99 100 102 102 105 105 105 105 101 103 103 101 103
97 93 95 91 85 82 77 72 68 71 69 65 66 68 71 75 78 82 86 87 89 88 89 91 90 87 92 91 91 93 94 97 99 101 103 104 102 104 99 102 101 101 101
95 97 99 92 84 74 72 69 65 64 63 61 62 64 68 72 75 78 80 80 82 84 84 83 83 79 81 82 81 84 89 91 94 97 100 98 101 101 99 101 103 103 99
99 101 97 92 81 74 67 64 63 62 61 60 61 63 66 70 71 74 74 75 76 77 77 75 75 74 75 77 76 77 79 81 83 87 89 90 95 96 95 100 105 98 96
101 101 97 88 74 69 66 61 59 58 59 59 60 62 64 68 70 70 70 70 70 71 71 70 69 66 69 69 71 69 72 74 77 82 81 82 86 87 91 96 95 94 95
101 97 91 80 70 64 63 58 57 58 56 55 57 59 59 61 65 64 65 66 66 67 65 63 61 60 60 63 64 64 65 65 68 71 72 76 79 82 84 89 89 92 90
98 92 82 72 66 61 60 58 57 56 54 53 53 54 56 57 59 59 60 60 61 61 59 59 58 57 58 59 60 61 61 60 61 63 64 66 69 75 80 83 89 88 88
Wind_Direction
303 308 302 301 295 292 287 285 280 275 281 286 287 287 279 283 297 292 280 275 273 278 280 281 272 266 261 262 260 258 255 245 245 248 250 250 255 259 265 267 272 273 268
294 310 304 296 288 281 284 287 286 283 284 288 282 274 278 288 295 296 280 276 273 273 268 269 275 273 266 267 265 263 255 252 247 250 255 251 254 259 264 270 270 268 269
284 295 291 272 268 273 285 295 298 291 278 277 277 273 289 296 297 296 279 274 279 278 275 270 271 270 262 266 270 262 262 260 250 248 247 252 258 261 265 267 268 269 271
282 277 258 260 262 269 278 288 282 281 288 280 283 288 296 294 295 294 285 275 281 281 282 276 272 270 271 265 267 267 260 262 260 257 256 257 257 255 257 260 264 268 272
255 267 268 265 260 278 282 281 277 274 279 288 289 291 291 294 295 291 293 282 279 278 280 279 274 275 272 274 266 263 267 263 259 261 262 262 261 261 263 265 267 268 269
262 263 261 270 254 268 271 277 285 281 279 287 287 285 283 290 294 292 288 289 282 280 272 278 279 277 278 277 271 264 263 266 268 264 264 263 264 264 264 263 263 265 266
270 269 264 265 267 264 274 278 278 275 287 285 288 279 278 279 286 289 287 289 287 284 277 280 291 275 277 274 268 269 266 266 267 268 265 265 262 263 266 265 263 265 265
268 272 268 265 267 269 274 276 276 280 279 278 276 279 279 283 278 281 287 287 284 285 286 279 285 279 276 276 270 264 266 264 263 265 266 266 263 265 265 263 264 267 268
262 259 263 264 267 270 272 272 272 274 276 278 279 278 280 274 268 272 271 270 274 276 282 281 283 283 272 271 272 269 269 263 266 266 266 265 262 265 263 264 264 263 262
261 264 264 265 263 264 270 270 269 270 273 274 273 271 272 271 261 272 266 269 269 274 266 277 278 280 270 273 267 269 272 268 271 266 262 265 263 260 262 264 260 261 262
283 278 272 270 270 272 264 260 262 266 266 269 268 268 268 264 261 262 266 266 267 271 269 270 268 270 269 271 269 268 267 265 273 269 264 259 263 265 263 261 263 264 263
294 287 282 279 277 273 272 270 266 265 264 265 265 267 269 270 267 266 265 268 270 268 267 264 262 264 264 264 262 267 271 266 268 267 264 259 260 259 260 261 264 265 264
295 291 286 282 280 278 276 274 272 269 268 266 268 268 267 268 270 271 272 274 275 274 272 271 265 263 262 259 260 263 266 268 266 263 261 258 258 258 258 260 260 260 261
294 292 290 286 280 276 274 272 270 270 268 266 265 264 264 266 268 269 269 269 269 270 270 270 269 269 263 257 259 261 261 258 262 261 259 257 257 258 259 259 259 261 262
294 293 292 291 291 290 285 279 276 273 271 269 268 266 265 264 264 264 264 266 268 268 268 268 267 266 261 261 258 254 254 256 255 255 257 258 257 257 257 258 259 260 260
298 296 294 292 290 288 286 283 281 278 275 272 270 268 267 267 266 265 265 264 264 265 266 266 266 266 264 260 256 257 253 252 252 252 252 253 254 256 258 259 261 262 261
300 297 295 293 292 291 290 286 282 278 275 272 270 268 267 267 266 266 265 264 265 266 266 265 263 262 262 262 263 262 257 252 252 250 250 253 255 254 255 258 259 259 261
302 301 298 295 293 292 292 288 285 285 277 272 270 267 265 264 265 267 267 268 268 268 267 264 263 260 258 260 257 257 258 261 260 257 256 255 256 256 255 257 258 260 261
304 299 296 294 292 292 292 288 284 282 277 273 270 268 265 265 265 265 265 265 265 265 265 264 263 261 260 259 258 256 255 258 257 258 260 261 261 261 262 261 259 260 260
304 303 300 301 301 300 294 288 285 279 276 274 272 269 267 266 265 265 264 264 263 263 262 263 262 263 263 261 260 259 258 258 258 257 257 259 261 265 264 263 263 264 263
306 307 308 305 304 301 297 290 284 278 274 274 272 272 269 266 265 264 264 264 264 263 262 263 261 259 261 260 258 258 259 258 259 259 259 259 260 262 261 261 261 261 262
309 310 307 307 305 304 297 291 285 279 276 274 272 272 270 268 267 266 266 266 265 265 265 264 265 264 263 262 261 258 257 256 255 256 256 257 257 258 260 260 262 262 261
308 309 307 307 306 304 295 289 285 282 279 277 276 275 273 271 272 271 272 270 270 270 270 270 268 265 264 264 263 260 258 257 256 256 255 254 254 255 256 258 259 261 261
306 306 306 306 302 299 294 290 286 284 281 280 280 278 277 276 276 275 276 274 272 271 270 270 269 266 266 264 263 261 259 257 256 255 254 252 253 253 254 256 260 261 261
303 303 304 302 299 296 294 291 288 284 281 280 279 278 277 275 274 273 271 270 270 269 270 269 268 266 265 264 262 261 260 257 256 256 255 252 251 251 252 255 257 258 262
303 302 302 299 296 296 294 293 291 288 286 285 282 281 279 277 275 274 273 270 269 269 268 267 266 265 264 262 261 261 260 259 258 255 253 252 249 248 250 252 254 258 260
Height
10753 10754 10749 10745 10742 10735 10732 10731 10731 10728 10727 10725 10725 10726 10723 10721 10721 10720 10719 10718 10717 10718 10713 10711 10710 10709 10709 10709 10710 10711 10712 10712 10711 10712 10713 10713 10714 10713 10714 10716 10717 10718 10718
10744 10745 10744 10735 10735 10726 10724 10720 10721 10717 10715 10716 10715 10712 10712 10711 10710 10708 10708 10708 10708 10709 10706 10703 10701 10701 10702 10701 10702 10703 10704 10705 10706 10704 10704 10704 10705 10705 10705 10706 10707 10708 10709
10731 10738 10734 10731 10728 10718 10716 10709 10705 10702 10701 10703 10703 10701 10701 10697 10696 10695 10696 10696 10696 10696 10695 10694 10694 10694 10693 10692 10692 10692 10692 10694 10695 10696 10697 10697 10696 10695 10695 10696 10697 10698 10699
10722 10720 10720 10717 10715 10711 10706 10696 10693 10690 10687 10685 10688 10689 10687 10686 10684 10684 10683 10684 10683 10684 10683 10683 10682 10682 10682 10682 10682 10680 10680 10680 10681 10682 10684 10685 10686 10687 10687 10687 10687 10687 10687
10707 10703 10705 10703 10702 10696 10690 10682 10680 10679 10674 10672 10671 10669 10668 10671 10671 10671 10671 10671 10671 10671 10672 10671 10670 10671 10671 10670 10669 10668 10668 10668 10668 10669 10670 10671 10672 10673 10674 10674 10675 10676 10676
10693 10691 10689 10690 10685 10678 10675 10671 10670 10663 10660 10660 10658 10656 10655 10654 10656 10657 10658 10659 10660 10660 10660 10659 10660 10659 10659 10658 10657 10656 10656 10655 10656 10657 10656 10658 10659 10660 10661 10662 10663 10664 10665
10680 10679 10676 10674 10672 10669 10666 10662 10657 10645 10647 10645 10643 10641 10640 10642 10640 10641 10642 10643 10643 10644 10645 10644 10644 10646 10644 10643 10644 10643 10643 10644 10645 10643 10644 10645 10646 10646 10647 10649 10650 10651 10652
10665 10663 10660 10658 10658 10655 10653 10649 10643 10636 10631 10630 10624 10626 10626 10626 10623 10624 10624 10625 10625 10626 10625 10627 10626 10629 10630 10629 10630 10629 10630 10631 10631 10631 10632 10633 10632 10633 10634 10636 10637 10639 10639
10648 10643 10640 10638 10636 10634 10633 10633 10627 10622 10617 10615 10610 10610 10609 10609 10605 10604 10606 10608 10608 10610 10610 10608 10609 10611 10613 10613 10614 10615 10616 10616 10617 10618 10618 10619 10619 10620 10621 10623 10624 10625 10626
10633 10628 10626 10623 10618 10615 10612 10610 10610 10605 10599 10599 10597 10591 10595 10594 10591 10590 10588 10588 10591 10591 10591 10592 10591 10592 10594 10594 10596 10597 10598 10600 10602 10602 10603 10604 10605 10606 10607 10609 10611 10611 10612
10621 10615 10610 10606 10600 10596 10594 10591 10587 10585 10583 10579 10579 10575 10573 10574 10574 10572 10570 10570 10571 10571 10572 10572 10573 10574 10574 10577 10575 10577 10580 10582 10583 10585 10586 10587 10588 10590 10591 10592 10593 10593 10595
10601 10595 10589 10585 10581 10577 10572 10569 10567 10562 10558 10554 10551 10551 10549 10548 10548 10550 10551 10549 10545 10548 10550 10552 10552 10553 10555 10556 10554 10556 10558 10562 10562 10564 10566 10568 10569 10570 10572 10573 10574 10577 10579
10574 10570 10567 10561 10555 10549 10545 10541 10538 10536 10533 10530 10526 10524 10522 10520 10517 10520 10520 10526 10521 10521 10523 10524 10525 10530 10531 10537 10534 10533 10536 10539 10541 10543 10544 10545 10546 10548 10550 10553 10553 10556 10561
10548 10542 10537 10534 10530 10526 10520 10514 10510 10504 10501 10499 10497 10494 10495 10496 10493 10491 10491 10493 10498 10496 10495 10496 10494 10499 10505 10511 10508 10512 10516 10516 10517 10518 10521 10523 10525 10527 10529 10530 10531 10533 10537
10517 10512 10508 10503 10498 10492 10490 10487 10482 10477 10473 10469 10467 10463 10463 10464 10464 10462 10463 10462 10465 10468 10468 10466 10471 10470 10471 10480 10479 10486 10492 10493 10495 10496 10497 10499 10502 10505 10507 10508 10510 10512 10514
10493 10487 10479 10470 10464 10459 10456 10451 10446 10442 10439 10436 10432 10431 10429 10429 10429 10431 10431 10430 10432 10432 10435 10441 10440 10441 10439 10444 10446 10455 10460 10465 10471 10473 10473 10474 10477 10478 10481 10482 10486 10487 10489
10468 10460 10450 10440 10429 10423 10417 10412 10410 10407 10402 10400 10395 10396 10394 10394 10394 10395 10395 10395 10397 10398 10401 10409 10411 10414 10405 10412 10416 10425 10424 10434 10442 10445 10446 10448 10451 10454 10457 10462 10463 10464 10466
10443 10431 10421 10409 10399 10390 10382 10376 10370 10369 10365 10364 10362 10361 10360 10358 10360 10361 10361 10361 10363 10363 10366 10369 10379 10384 10379 10382 10387 10394 10395 10404 10408 10411 10416 10420 10421 10423 10430 10437 10439 10441 10442
10414 10403 10392 10382 10372 10362 10353 10346 10339 10335 10331 10329 10329 10328 10328 10326 10327 10328 10328 10331 10332 10332 10332 10339 10345 10351 10351 10356 10358 10360 10366 10377 10378 10377 10385 10389 10389 10391 10401 10409 10411 10413 10414
10385 10375 10365 10353 10342 10335 10327 10317 10313 10308 10304 10303 10302 10300 10300 10298 10298 10299 10298 10303 10305 10305 10307 10307 10320 10321 10319 10324 10328 10330 10335 10342 10344 10350 10356 10357 10360 10365 10375 10375 10380 10385 10386
10360 10347 10337 10327 10319 10310 10299 10290 10286 10283 10280 10278 10278 10276 10274 10271 10271 10272 10273 10276 10277 10279 10280 10278 10283 10295 10289 10291 10296 10299 10304 10309 10313 10319 10324 10326 10335 10336 10345 10346 10349 10353 10356
10335 10325 10313 10301 10294 10286 10274 10266 10262 10260 10257 10254 10253 10253 10250 10248 10247 10247 10247 10250 10251 10251 10253 10253 10254 10260 10264 10262 10267 10270 10272 10278 10284 10287 10290 10301 10302 10309 10316 10315 10319 10323 10329
10312 10303 10291 10281 10270 10264 10255 10248 10242 10239 10236 10232 10231 10230 10228 10225 10225 10223 10225 10226 10226 10225 10226 10226 10228 10229 10234 10235 10237 10241 10244 10249 10254 10256 10262 10270 10273 10282 10288 10287 10287 10296 10302
10290 10280 10268 10259 10249 10241 10235 10230 10225 10220 10216 10212 10209 10208 10208 10204 10201 10201 10200 10202 10202 10200 10200 10202 10203 10206 10207 10211 10210 10215 10218 10222 10227 10225 10238 10243 10247 10256 10258 10259 10265 10269 10272
10267 10257 10247 10239 10229 10221 10216 10210 10205 10201 10197 10193 10190 10187 10187 10185 10180 10181 10180 10178 10179 10177 10178 10180 10182 10183 10185 10186 10188 10192 10194 10200 10200 10204 10211 10216 10223 10229 10235 10236 10240 10242 10249
10246 10236 10229 10219 10210 10202 10198 10193 10187 10182 10179 10175 10171 10169 10166 10165 10162 10161 10161 10160 10159 10157 10159 10160 10162 10164 10166 10167 10169 10172 10174 10178 10181 10183 10189 10194 10199 10205 10210 10216 10217 10222 10226